[[[{"header":{"parameterUnit":"kt","parameterCategory":2,"dx":1,"dy":1,"la1":30.253999710083008,"la2":30.299108505249023,"lo1":-89.0895004272461,"lo2":-89.04439544677734,"nx":28,"ny":28,"refTime":"2022-11-01T21:00:00:Z","depth":0,"parameterNumber":1,"parameterNumberName":"U-component_of_WINDS"},"data":[-4.7071,-4.7198,-4.7177,-4.7314,-4.7319,-4.741,-4.7436,-4.7468,-4.7488,-4.7596,-4.7654,-4.7648,-4.7662,-4.7729,-4.7793,-4.7789,-4.7819,-4.7879,-4.7865,-4.761,-4.7574,-4.7539,-4.7508,-4.7885,-4.7886,-4.8133,-4.8135,-4.8137,-4.6888,-4.6894,-4.6959,-4.7009,-4.7065,-4.6994,-4.7029,-4.7082,-4.7165,-4.7191,-4.7247,-4.7341,-4.7413,-4.7406,-4.7473,-4.7535,-4.7507,-4.7555,-4.7551,-4.7555,-4.7281,-4.7248,-4.7576,-4.7576,-4.7576,-4.7576,-4.7576,-4.7576,-4.655,-4.6627,-4.6644,-4.6715,-4.6734,-4.6768,-4.6838,-4.6827,-4.6892,-4.6957,-4.6919,-4.7015,-4.7038,-4.7108,-4.7127,-4.7202,-4.7145,-4.7192,-4.7205,-4.7218,-4.7236,-4.6887,-4.7212,-4.7211,-4.721,-4.7209,-4.7208,0,-4.6297,-4.6274,-4.6334,-4.6389,-4.644,-4.6481,-4.6515,-4.6558,-4.6503,-4.6559,-4.6639,-4.6683,-4.6769,-4.6844,-4.6901,-4.6911,-4.6846,-4.6836,-4.6869,-4.689,-4.6902,-4.69,-4.6458,-4.6828,-4.6824,-4.6822,-4.682,-4.6819,-4.5957,-4.6048,-4.6054,-4.61,-4.6113,-4.6188,-4.6228,-4.6172,-4.6218,-4.6253,-4.6325,-4.6398,-4.6453,-4.6588,-4.6576,-4.6641,-4.6611,-4.6755,-4.662,-4.6636,-4.6617,-4.6613,-4.6623,-4.6783,-4.6788,-4.6791,-4.6794,0,-4.5768,-4.5731,-4.5865,-4.5862,-4.5865,-4.5964,-4.5963,-4.6038,-4.6018,-4.612,-4.614,-4.6111,-4.6192,-4.6155,-4.6241,-4.622,-4.6389,-4.6356,-4.6381,-4.6373,-4.6501,-4.6491,-4.6915,-4.6968,-4.6573,-4.6576,-4.658,0,-4.5465,-4.5587,-4.5525,-4.5605,-4.5739,-4.5678,-4.5813,-4.5809,-4.5826,-4.5905,-4.5822,-4.5899,-4.584,-4.5912,-4.5881,-4.6012,-4.6027,-4.602,-4.6012,-4.603,-4.6031,-4.6057,-4.604,-4.5983,-4.5981,-4.5979,-4.5978,0,-4.5175,-4.5284,-4.5412,-4.5432,-4.5441,-4.5504,-4.5511,-4.5528,-4.5569,-4.5616,-4.5642,-4.5701,-4.5735,-4.5784,-4.5744,-4.5655,-4.5902,-4.5771,-4.5895,-4.5897,-4.5955,-4.5952,-4.6333,-4.5975,-4.5974,-4.5974,-4.5973,0,-4.4925,-4.497,-4.5162,-4.5168,-4.5199,-4.5284,-4.5337,-4.5401,-4.5426,-4.5411,-4.5447,-4.5388,-4.5497,-4.537,-4.552,-4.5415,-4.5454,-4.5456,-4.5464,-4.5475,-4.5334,-4.5558,-4.5922,-4.5961,-4.5481,-4.5477,-4.5473,0,-4.4606,-4.4788,-4.4735,-4.4919,-4.4998,-4.4899,-4.4993,-4.5016,-4.5003,-4.507,-4.5056,-4.5134,-4.5031,-4.505,-4.5129,-4.512,-4.5256,-4.5099,-4.5203,-4.5208,-4.5202,-4.5536,-4.56,-4.5846,-4.542,-4.5426,-4.543,0,-4.4353,-4.436,-4.4397,-4.4416,-4.4434,-4.45,-4.4607,-4.4668,-4.4716,-4.475,-4.4841,-4.4947,-4.4875,-4.4908,-4.4866,-4.495,-4.5162,-4.4861,-4.4861,-4.492,-4.5389,-4.545,-4.5492,-4.5116,-4.5122,-4.5127,-4.5388,0,-4.3989,-4.4074,-4.4169,-4.4213,-4.4257,-4.4369,-4.4326,-4.4378,-4.4332,-4.4316,-4.4447,-4.4457,-4.4522,-4.4557,-4.4514,-4.4717,-4.4678,-4.46,-4.4476,-4.4694,-4.4779,-4.4813,-4.4352,-4.4348,-4.4345,-4.4342,0,0,-4.3694,-4.3814,-4.3752,-4.3852,-4.3886,-4.378,-4.3904,-4.3925,-4.397,-4.3997,-4.3926,-4.4079,-4.409,-4.4255,-4.4319,-4.4345,-4.4379,-4.4304,-4.459,-4.4617,-4.4643,-4.4735,-4.4771,-4.4337,-4.4335,-4.4334,-4.4333,0,-4.3552,-4.356,-4.3681,-4.3699,-4.3723,-4.3698,-4.3727,-4.3733,-4.3728,-4.3854,-4.3768,-4.3842,-4.3965,-4.3989,-4.4018,-4.4282,-4.4215,-4.4305,-4.4461,-4.4558,-4.459,-4.4618,-4.4715,-4.475,-4.4325,-4.4326,-4.4326,0,-4.3298,-4.33,-4.3353,-4.3421,-4.3435,-4.3519,-4.3377,-4.3471,-4.3533,-4.3415,-4.3543,-4.3543,-4.3572,-4.3731,-4.3801,-4.374,-4.4068,-4.3956,-4.3976,-4.3984,-4.4075,-4.4114,-4.4148,-4.3696,-4.3694,-4.3692,0,0,-4.3181,-4.3258,-4.3243,-4.3387,-4.3402,-4.3366,-4.3406,-4.3364,-4.3389,-4.34,-4.3399,-4.3429,-4.3499,-4.3548,-4.3612,-4.3793,-4.3796,-4.388,-4.391,-4.3934,-4.3956,-4.4054,-4.4092,-4.3684,-4.3684,-4.3684,0,0,-4.3126,-4.3113,-4.3061,-4.3221,-4.3247,-4.3244,-4.3334,-4.3271,-4.3324,-4.3307,-4.3242,-4.3248,-4.3396,-4.34,-4.3302,-4.3568,-4.3445,-4.3468,-4.356,-4.3597,-4.3626,-4.3623,-4.316,0,0,0,0,0,-4.2958,-4.3114,-4.3067,-4.3087,-4.3173,-4.3269,-4.328,-4.3229,-4.3143,-4.3216,-4.3205,-4.3129,-4.3334,-4.3246,-4.3268,-4.3379,-4.3586,-4.3603,-4.362,-4.3781,-4.382,-4.3853,0,0,0,0,0,0,-4.2966,-4.2991,-4.3062,-4.3066,-4.3084,-4.3263,-4.3106,-4.3097,-4.3134,-4.3117,-4.3133,-4.3129,-4.3089,-4.323,-4.3252,-4.3358,-4.3153,-4.3593,-4.3607,-4.3621,-4.3794,-4.3826,-4.3853,0,0,0,0,0,-4.2971,-4.2991,-4.3142,-4.3063,-4.308,-4.3048,-4.31,-4.3091,-4.3119,-4.3101,-4.3095,-4.3076,-4.3093,-4.3108,-4.3243,-4.335,-4.3138,-4.3146,-4.3602,-4.3614,-4.3624,-4.381,0,0,0,0,0,0,-4.2976,-4.2984,-4.3144,-4.3147,-4.3,-4.3037,-4.3041,-4.3086,-4.3099,-4.3095,-4.3041,-4.3028,-4.3098,-4.3108,-4.312,-4.335,-4.3125,-4.3134,-4.3139,-4.3611,-4.362,-4.3628,0,0,0,0,0,0,-4.2973,-4.2988,-4.3146,-4.3069,-4.3062,-4.3028,-4.3031,-4.3138,-4.3101,-4.3038,-4.3027,-4.3035,-4.3082,-4.311,-4.3119,-4.3288,-4.3116,-4.3124,-4.3129,-4.3133,-4.3619,-4.3626,0,0,0,0,0,0,-4.2979,-4.2991,-4.3067,-4.3063,-4.3057,-4.3089,-4.3122,-4.3214,-4.3032,-4.3039,-4.3015,-4.3007,-4.3086,-4.3093,-4.3118,-4.3285,-4.3288,-4.3116,-4.3122,-4.3125,-4.3128,0,0,0,0,0,0,0,-4.2983,-4.2911,-4.3125,-4.3058,-4.3053,-4.3177,-4.3178,-4.3179,-4.3031,-4.3024,-4.3017,-4.301,-4.3071,-4.308,-4.3088,-4.3282,0,0,-4.3115,-4.3119,0,0,0,0,0,0,0,0,-4.2904,-4.2909,-4.3125,-4.3126,-4.3127,-4.3177,-4.3178,-4.3178,-4.3029,-4.3024,-4.3018,-4.3013,-4.3073,-4.308,-4.3087,0,0,0,0,0,0,0,0,0,0,0,0,0,0,0,-4.3125,-4.3126,0,-4.3177,-4.3178,-4.3178,-4.3029,-4.3024,-4.3019,-4.3015,-4.3075,-4.3081,-4.3087,0,0,0,0,0,0,0,0,0,0,0,0,0,0,0,0,0,0,0,0,0,0,0,0,0,0,0,0,0,0,0,0,0,0,0,0,0,0,0,0,0,0,0,0,0,0,0,0,0,0,0,0,0,0,0,0,0,0,0,0,0,0,0,0,0,0,0,0,0]}],[{"header":{"parameterUnit":"kt","parameterCategory":2,"dx":1,"dy":1,"la1":30.253999710083008,"la2":30.299108505249023,"lo1":-89.0895004272461,"lo2":-89.04439544677734,"nx":28,"ny":28,"refTime":"2022-11-01T21:00:00:Z","depth":0,"parameterNumber":2,"parameterNumberName":"V-component_of_WINDS"},"data":[-5.084,-5.0898,-5.0891,-5.0952,-5.0956,-5.0996,-5.1008,-5.1023,-5.1032,-5.1078,-5.1103,-5.1101,-5.1106,-5.1133,-5.1159,-5.1156,-5.1167,-5.1193,-5.1186,-5.1079,-5.1064,-5.1049,-5.1035,-5.1196,-5.1196,-5.1297,-5.1298,-5.1299,-5.0761,-5.0766,-5.0797,-5.0822,-5.0848,-5.0819,-5.0836,-5.0859,-5.0895,-5.0907,-5.0932,-5.0971,-5.1001,-5.0998,-5.1025,-5.105,-5.1037,-5.1057,-5.1055,-5.1056,-5.0941,-5.0927,-5.1067,-5.1067,-5.1067,-5.1067,-5.1067,-5.1067,-5.0616,-5.0651,-5.0662,-5.0695,-5.0706,-5.0722,-5.0754,-5.075,-5.0779,-5.0808,-5.0793,-5.0833,-5.0843,-5.0871,-5.0879,-5.0909,-5.0884,-5.0904,-5.0909,-5.0914,-5.092,-5.0774,-5.0913,-5.0913,-5.0913,-5.0912,-5.0912,0,-5.0507,-5.0498,-5.0528,-5.0555,-5.0579,-5.0599,-5.0615,-5.0635,-5.0613,-5.0638,-5.0673,-5.0692,-5.0728,-5.0759,-5.0783,-5.0786,-5.0756,-5.0753,-5.0766,-5.0774,-5.0777,-5.0775,-5.0588,-5.0749,-5.0747,-5.0746,-5.0745,-5.0745,-5.0358,-5.0401,-5.0408,-5.043,-5.0437,-5.0472,-5.0491,-5.0469,-5.049,-5.0506,-5.0538,-5.0569,-5.0593,-5.065,-5.0644,-5.067,-5.0656,-5.0718,-5.066,-5.0665,-5.0655,-5.0653,-5.0656,-5.0729,-5.0731,-5.0733,-5.0734,0,-5.0275,-5.0263,-5.0326,-5.0329,-5.0331,-5.0376,-5.0378,-5.0411,-5.0404,-5.0449,-5.0458,-5.0446,-5.048,-5.0464,-5.05,-5.049,-5.0561,-5.0547,-5.0557,-5.0553,-5.0606,-5.0601,-5.0783,-5.0806,-5.064,-5.0641,-5.0643,0,-5.0142,-5.0199,-5.0177,-5.0214,-5.0275,-5.0251,-5.0312,-5.0312,-5.032,-5.0355,-5.032,-5.0354,-5.0327,-5.0358,-5.0344,-5.0399,-5.0406,-5.0401,-5.0397,-5.0404,-5.0405,-5.0413,-5.0405,-5.0386,-5.0385,-5.0384,-5.0384,0,-5.0012,-5.0067,-5.0128,-5.0138,-5.0147,-5.0175,-5.018,-5.0189,-5.0208,-5.0229,-5.0241,-5.0268,-5.0282,-5.0303,-5.0284,-5.0245,-5.0351,-5.0294,-5.0346,-5.0347,-5.037,-5.0368,-5.0535,-5.0382,-5.0382,-5.0382,-5.0382,0,-4.9903,-4.9927,-5.0017,-5.0023,-5.0038,-5.0078,-5.0103,-5.0133,-5.0145,-5.0139,-5.0156,-5.0129,-5.0178,-5.0121,-5.0186,-5.0141,-5.0156,-5.0156,-5.016,-5.0162,-5.0099,-5.0194,-5.0356,-5.0371,-5.0165,-5.0163,-5.0162,0,-4.9757,-4.9845,-4.9825,-4.9911,-4.9949,-4.9906,-4.995,-4.9962,-4.9957,-4.9988,-4.9982,-5.0017,-4.9971,-4.998,-5.0015,-5.0009,-5.0069,-5.0001,-5.0043,-5.0045,-5.004,-5.0189,-5.0216,-5.0322,-5.0139,-5.0141,-5.0143,0,-4.9641,-4.9653,-4.967,-4.968,-4.9693,-4.9725,-4.9775,-4.9805,-4.9826,-4.9844,-4.9885,-4.9934,-4.9901,-4.9916,-4.9897,-4.9934,-5.0028,-4.9894,-4.9894,-4.9918,-5.0126,-5.0152,-5.017,-5.0007,-5.001,-5.0012,-5.0124,0,-4.9476,-4.9519,-4.9565,-4.959,-4.9612,-4.9666,-4.9649,-4.9674,-4.9654,-4.9648,-4.9708,-4.9713,-4.9743,-4.9759,-4.974,-4.983,-4.9812,-4.9777,-4.972,-4.9818,-4.9855,-4.987,-4.9667,-4.9665,-4.9663,-4.9662,0,0,-4.9339,-4.94,-4.9376,-4.9425,-4.9442,-4.9397,-4.9455,-4.9467,-4.9491,-4.9503,-4.9471,-4.9542,-4.9547,-4.9621,-4.9651,-4.9663,-4.9677,-4.9644,-4.9772,-4.9784,-4.9795,-4.9835,-4.9851,-4.966,-4.9659,-4.9658,-4.9658,0,-4.9275,-4.9284,-4.9343,-4.9354,-4.9369,-4.936,-4.9374,-4.9381,-4.9379,-4.9438,-4.9399,-4.9433,-4.9491,-4.9501,-4.9514,-4.9635,-4.9602,-4.9645,-4.9716,-4.9757,-4.9772,-4.9784,-4.9826,-4.9841,-4.9654,-4.9655,-4.9655,0,-4.9157,-4.9163,-4.919,-4.9228,-4.9238,-4.9278,-4.9214,-4.926,-4.929,-4.9237,-4.9296,-4.9297,-4.931,-4.9383,-4.9415,-4.9387,-4.9535,-4.9486,-4.9495,-4.9498,-4.9537,-4.9554,-4.957,-4.9367,-4.9366,-4.9365,0,0,-4.9104,-4.9144,-4.9143,-4.9213,-4.9222,-4.9209,-4.9229,-4.9211,-4.9225,-4.923,-4.923,-4.9244,-4.9277,-4.9299,-4.9329,-4.9412,-4.9412,-4.9451,-4.9465,-4.9476,-4.9485,-4.9527,-4.9544,-4.9362,-4.9362,-4.9362,0,0,-4.9078,-4.908,-4.9058,-4.9137,-4.9152,-4.9155,-4.9198,-4.917,-4.9196,-4.9187,-4.9158,-4.9161,-4.9229,-4.9231,-4.9186,-4.9308,-4.9252,-4.9262,-4.9304,-4.9321,-4.9334,-4.9331,-4.9121,0,0,0,0,0,-4.9004,-4.9079,-4.9059,-4.907,-4.9118,-4.9166,-4.9172,-4.915,-4.9111,-4.9145,-4.9141,-4.9105,-4.9201,-4.916,-4.9171,-4.9221,-4.9317,-4.9325,-4.9332,-4.9406,-4.9423,-4.9438,0,0,0,0,0,0,-4.9008,-4.9022,-4.9057,-4.9064,-4.9074,-4.9163,-4.9092,-4.9088,-4.9107,-4.9099,-4.9107,-4.9106,-4.9087,-4.9153,-4.9163,-4.9211,-4.9117,-4.932,-4.9327,-4.9333,-4.9412,-4.9426,-4.9439,0,0,0,0,0,-4.9011,-4.9022,-4.9105,-4.9062,-4.9071,-4.9061,-4.9089,-4.9085,-4.9099,-4.9092,-4.9089,-4.9081,-4.9089,-4.9096,-4.9159,-4.9207,-4.911,-4.9114,-4.9324,-4.933,-4.9335,-4.9419,0,0,0,0,0,0,-4.9014,-4.9019,-4.9106,-4.9108,-4.9032,-4.9055,-4.9058,-4.9082,-4.909,-4.9088,-4.9064,-4.9058,-4.9092,-4.9097,-4.9102,-4.9207,-4.9104,-4.9108,-4.9111,-4.9328,-4.9333,-4.9336,0,0,0,0,0,0,-4.9013,-4.9021,-4.9107,-4.9071,-4.9068,-4.905,-4.9053,-4.9103,-4.9091,-4.9061,-4.9056,-4.9061,-4.9083,-4.9097,-4.9101,-4.918,-4.91,-4.9104,-4.9106,-4.9108,-4.9332,-4.9335,0,0,0,0,0,0,-4.9016,-4.9022,-4.907,-4.9068,-4.9066,-4.9086,-4.9094,-4.9144,-4.9061,-4.9062,-4.9053,-4.9049,-4.9085,-4.9088,-4.9101,-4.9179,-4.918,-4.91,-4.9103,-4.9104,-4.9106,0,0,0,0,0,0,0,-4.9018,-4.8978,-4.9095,-4.9066,-4.9064,-4.9126,-4.9126,-4.9127,-4.906,-4.9057,-4.9054,-4.9051,-4.9079,-4.9083,-4.9087,-4.9178,0,0,-4.91,-4.9102,0,0,0,0,0,0,0,0,-4.8974,-4.8977,-4.9095,-4.9096,-4.9096,-4.9126,-4.9126,-4.9127,-4.906,-4.9057,-4.9054,-4.9052,-4.908,-4.9083,-4.9087,0,0,0,0,0,0,0,0,0,0,0,0,0,0,0,-4.9095,-4.9096,0,-4.9126,-4.9126,-4.9127,-4.9059,-4.9057,-4.9055,-4.9053,-4.9081,-4.9084,-4.9086,0,0,0,0,0,0,0,0,0,0,0,0,0,0,0,0,0,0,0,0,0,0,0,0,0,0,0,0,0,0,0,0,0,0,0,0,0,0,0,0,0,0,0,0,0,0,0,0,0,0,0,0,0,0,0,0,0,0,0,0,0,0,0,0,0,0,0,0,0]}]]]